Starlink 34064

operational
NORAD ID: 64114 Int'l Des: 2025-110 Owner: SPXS Country: US Constellation: starlink
LEOCIRCULAR

Über Starlink 34064

Beschreibung wird geladen...

Live-Position

3D-Globus wird geladen...

Nächste Überflüge

Höhenverlauf

Altitude vs Time

uPlot chart will show altitude changes over time

Zweizeiliger Elementsatz

1 64114U 25110U 25353.43195050 .00015862 00000-0 54635-3 0 9998
2 64114 53.1587 39.6286 0001119 97.1917 262.9211 15.30211611 33591
Epoch: 19. Dez. 2025 • Age: 11 hours

Aktueller Status

Höhe 480.6 km
Geschwindigkeit 7.63 km/s
Subsatellitenpunkt 51.43°N, 52.71°E
Startdatum 23. Mai 2025
Alter 0.5 years
Typ internet

Technische Details

Klassifizierung Payload
Masse 575.00 kg
Trockenmasse 530.00 kg
Gesamtmasse 575.00 kg
Länge 0.30 m
Durchmesser 4.10 m
Spannweite 29.00 m
Form Box + pan
Hersteller SPXS
Bus-Typ Starlink V2MO
Phasenstatus In Orbit
Besitzer/Staat SPXS/US

Große Konstellationen

Loading constellations...